Location: Powder Track
(41.8531°N, 72.3584°W)
Time: 02:18:47
(UTC+00:00)

Vanguard 1 Rocket - Pass Details

Date: 09 August 2021
Orbit: 650 x 4226 km, 34.3° (Epoch: 16 September)

Event Time Altitude Azimuth Distance (km) Brightness Sun altitude
Rises 16:19:16 0° 271° (W) 8,088 12.1 62.7°
Reaches altitude 10° 16:25:30 10° 269° (W) 6,681 11.9 63.0°
Maximum altitude 16:44:20 58° 197° (SSW) 2,569 11.9 63.7°
Drops below altitude 10° 16:54:00 10° 121° (ESE) 3,636 10.8 63.8°
Sets 16:56:21 0° 117° (ESE) 4,305 11.0 63.8°
